Location: Beaurecueil
(43.5122°N, 5.5450°E)
Time: 21:06:57
(UTC+00:00)

Okean 1 Rocket - Pass Details

Date: 18 September 2020
Orbit: 605 x 635 km, 82.5° (Epoch: 27 October)

Event Time Altitude Azimuth Distance (km) Brightness Sun altitude
Exits shadow 19:51:19 51° 41° (NE) 803 3.4 -23.4°
Drops below altitude 10° 19:54:52 10° 14° (NNE) 2,032 5.8 -24.0°
Sets 19:57:08 0° 12° (NNE) 2,945 6.7 -24.4°
